Starlink 11306

operational
NORAD ID: 61254 Int'l Des: 2024-175 Owner: SPXS Country: US Constellation: starlink
LEOCIRCULAR

About Starlink 11306

Description loading...

Live Position

Loading 3D Globe...

Upcoming Passes

Altitude History

Altitude vs Time

uPlot chart will show altitude changes over time

Two-Line Element Set

1 61254U 24175M 25350.59504765 .00001580 00000-0 17890-4 0 9996
2 61254 53.1583 106.0274 0001090 54.2713 305.8406 15.69716018 71511
Epoch: Dec 16, 2025 • Age: 18 hours

Current Status

Altitude 363.2 km
Velocity 7.69 km/s
Sub-Earth Point -13.84°S, 122.69°W
Launch Date Sep 25, 2024
Age 1.2 years
Type internet

Technical Details

Classification Payload
Mass 960.00 kg
Dry Mass 910.00 kg
Total Mass 960.00 kg
Length 0.30 m
Diameter 4.10 m
Span 29.00 m
Shape Box + pan
Manufacturer SPXS
Bus Type Starlink V2MD
Phase Status In Orbit
Owner/State SPXS/US

Large Constellations

Loading constellations...